User: anonymous   Login
Location: Unspecified
(0.0000°N, 0.0000°E)
Time: 22:13:19
(UTC+00:00)
Language:

ISS - Orbit

View from above orbital plane
View from above orbital plane
View from above satellite
View from above satellite

Ground track
Ground track

The orbit data is extracted from the following two-line orbital elements,

1 25544U 98067A   16240.62632005  .00003186  00000-0  54953-4 0  9995
2 25544  51.6453  61.5521 0002981 248.0664 190.6535 15.54335230 16104
Epoch (UTC): 27 August 2016 15:01:54
Eccentricity: 0.0002981
inclination: 51.6453°
perigee height: 402 km
apogee height: 406 km
right ascension of ascending node: 61.5521°
argument of perigee: 248.0664°
revolutions per day: 15.54335230
mean anomaly at epoch: 190.6535°
orbit number at epoch: 1610

The dashed part of the orbit path shows where the satellite is in the earth's shadow,  

DLR